Miscellaneous Local Product
Issued by NWS North Platte, NE

Home | Current Version | Previous Version | Graphics & Text | Print | Product List | Glossary On
Versions: 1 2 3 4 5 6 7 8 9 10 11 12 13 14 15 16 17 18 19 20 21 22 23 24 25 26 27 28 29 30 31 32 33 34 35 36 37 38 39 40 41 42 43 44 45 46 47 48 49 50
122
AXUS43 KLBF 291010
MISLBF


WESTERN AND NORTH CENTRAL NEBRASKA HOURLY WEATHER ROUNDUP
NATIONAL WEATHER SERVICE NORTH PLATTE NE
500 AM CDT FRI APR 29 2016

NOTE: "FAIR" INDICATES FEW OR NO CLOUDS BELOW 12,000 FEET WITH NO
SIGNIFICANT WEATHER AND/OR OBSTRUCTIONS TO VISIBILITY.

NOTE: STATIONS NOT REPORTING VARIABLES SUCH AS SKY/WEATHER OR
PRESSURE ARE PROVIDED BY RAWS AND APRS NETWORKS AND ARE NOT UNDER
NATIONAL WEATHER SERVICE QUALITY CONTROL.

...OBSERVATIONS IN AND NEAR THE EASTERN PANHANDLE OF NEBRASKA...

CITY           SKY/WX    TMP DP  RH WIND       PRES   REMARKS
PINE RIDGE     CLOUDY    37  32  82 CALM      30.11R
CHADRON        CLOUDY    37  35  92 NE6       30.11S WCI  32
ALLIANCE       CLOUDY    36  35  96 E5        30.09R WCI  32
SIDNEY         CLOUDY    35  34  96 E5        30.09R WCI  31
CRESCENT LAKE    N/A     37  37  99 NE5         N/A  WCI  33
BIG SPRINGS      N/A     41  38  89 E8          N/A
$$

...OBSERVATIONS IN NORTHERN NEBRASKA AND FAR SOUTHERN SOUTH DAKOTA...

CITY           SKY/WX    TMP DP  RH WIND       PRES   REMARKS
WINNER         CLOUDY    42  38  85 NE3       30.11R
VALENTINE      CLOUDY    39  37  92 CALM      30.12R
THEDFORD       CLOUDY    40  37  92 CALM      30.11F
AINSWORTH      CLOUDY    39  39  97 CALM      30.12R FOG
O`NEILL        CLOUDY    41  40  95 CALM      30.13R FOG
ORD            CLOUDY    41  39  93 CALM      30.10F
BROKEN BOW     CLOUDY    39  37  92 CALM      30.10F
VALENTINE NWR    N/A     38  37  96 NW5         N/A  WCI  34
BUTTE            N/A     37  36  97 NE3         N/A
HALSEY           N/A     38  37  95 CALM        N/A
CHAMBERS         N/A     40  38  94 CALM        N/A
EWING            N/A     40  39  95 CALM        N/A
$$

...OBSERVATIONS IN SOUTHWEST NEBRASKA AND FAR NORTHEAST COLORADO...

CITY           SKY/WX    TMP DP  RH WIND       PRES   REMARKS
IMPERIAL       CLOUDY    41  38  89 E5        30.08F
OGALLALA       CLOUDY    40  36  85 NE6       30.10S
NORTH PLATTE   CLOUDY    40  38  93 NE6       30.10S
MCCOOK         CLOUDY    43  40  89 E6        30.09S
LEXINGTON      CLOUDY    42  40  91 E6        30.10S
PAXTON           N/A     41  38  91 NE6         N/A
STAPLETON        N/A     37  35  93 CALM        N/A
GOTHENBURG       N/A     42  38  86 E5          N/A
CALLAWAY         N/A     39  38  95 E3          N/A
$$

...OBSERVATIONS IN CENTRAL LINCOLN COUNTY AREA...

CITY           SKY/WX    TMP DP  RH WIND       PRES   REMARKS
N.P. AIRPORT   CLOUDY    40  38  93 NE6       30.10S
N.P. DOWNTOWN    N/A     40  38  92 NE3         N/A
N.P. SOUTHEAST   N/A     40  37  90 CALM        N/A
N.P. HILLCREST   N/A     40  38  91 E5          N/A
$$

...SOME OBSERVATIONS FROM AROUND THE REGION...

CITY           SKY/WX    TMP DP  RH WIND       PRES   REMARKS
DENVER         LGT SNOW  33  30  88 E7        30.02F FOG     WCI  27
LARAMIE        CLOUDY    30  28  92 SE15      29.96R WCI  19
CHEYENNE       CLOUDY    32  30  92 SE13      30.01R FOG     WCI  22
SCOTTSBLUFF    CLOUDY    35  32  88 S5        30.09R WCI  31
RAPID CITY     CLOUDY    36  33  89 CALM      30.11R
BISMARCK       CLOUDY    37  33  85 NE6       30.17S WCI  32
PIERRE         CLOUDY    41  37  86 NE9       30.12R
SIOUX FALLS    CLOUDY    40  37  89 NE5       30.13S
OMAHA          CLOUDY    45  41  86 N8        30.12S
GRAND ISLAND   CLOUDY    40  38  93 N5        30.11F
KANSAS CITY    CLOUDY    48  43  82 NE8       30.04S
WICHITA        CLOUDY    53  45  74 NE18G25   29.91F
OKLAHOMA CITY  LGT RAIN  57  54  89 NE15      29.79F
DALLAS         MOCLDY    74  68  81 S10       29.69F
AMARILLO       CLOUDY    54  52  93 E21G26    29.72F
DODGE CITY     RAIN      44  42  93 NE25G33   29.95F FOG
HAYS           CLOUDY    46  37  71 NE12      30.05R
GOODLAND       LGT RAIN  39  38  96 E10       30.04S WCI  32
$$




USA.gov is the U.S. government's official web portal to all federal, state and local government web resources and services.